| time (UTC) | temp F | wind direction | speed MPH | gust MPH | rain 1hr in | rain 24hr in | rain mn in | humidity % | barometer mb |
| 20260504214956 | 68 | 136 | 1.0 | 5.0 | 0.00 | 0.00 | 0.00 | 32 | 1002.7 |
| 20260504213955 | 68 | 56 | 0.0 | 4.0 | 0.00 | 0.00 | 0.00 | 33 | 1002.7 |
| 20260504212954 | 67 | 160 | 0.0 | 4.0 | 0.00 | 0.00 | 0.00 | 32 | 1003.0 |
| 20260504211953 | 67 | 26 | 0.0 | 15.0 | 0.00 | 0.00 | 0.00 | 34 | 1003.0 |
| 20260504210921 | 68 | 7 | 0.0 | 15.0 | 0.00 | 0.00 | 0.00 | 32 | 1003.0 |
| 20260504205920 | 67 | 54 | 1.0 | 12.0 | 0.00 | 0.00 | 0.00 | 34 | 1003.4 |
| 20260504204817 | 67 | 110 | 0.0 | 12.0 | 0.00 | 0.00 | 0.00 | 32 | 1003.4 |
| 20260504203816 | 67 | 127 | 1.0 | 12.0 | 0.00 | 0.00 | 0.00 | 32 | 1003.4 |
| 20260504202744 | 67 | 134 | 2.0 | 6.0 | 0.00 | 0.00 | 0.00 | 33 | 1003.4 |
| 20260504201743 | 67 | 97 | 1.0 | 5.0 | 0.00 | 0.00 | 0.00 | 32 | 1003.4 |
| 20260504200711 | 66 | 46 | 0.0 | 4.0 | 0.00 | 0.00 | 0.00 | 33 | 1003.4 |
| 20260504195710 | 67 | 97 | 0.0 | 4.0 | 0.00 | 0.00 | 0.00 | 33 | 1003.4 |
| 20260504194637 | 66 | 116 | 1.0 | 7.0 | 0.00 | 0.00 | 0.00 | 33 | 1003.4 |
| 20260504193636 | 66 | 167 | 3.0 | 7.0 | 0.00 | 0.00 | 0.00 | 33 | 1003.4 |
| 20260504192604 | 66 | 116 | 1.0 | 8.0 | 0.00 | 0.00 | 0.00 | 34 | 1003.7 |
| 20260504191603 | 65 | 126 | 1.0 | 8.0 | 0.00 | 0.00 | 0.00 | 35 | 1003.7 |
| 20260504190602 | 64 | 129 | 1.0 | 8.0 | 0.00 | 0.00 | 0.00 | 36 | 1003.7 |
| 20260504185601 | 64 | 151 | 3.0 | 8.0 | 0.00 | 0.00 | 0.00 | 36 | 1004.1 |
| 20260504184600 | 65 | 161 | 0.0 | 7.0 | 0.00 | 0.00 | 0.00 | 34 | 1004.1 |
| 20260504183559 | 64 | 156 | 3.0 | 13.0 | 0.00 | 0.00 | 0.00 | 35 | 1004.1 |
| 20260504182558 | 64 | 123 | 2.0 | 13.0 | 0.00 | 0.00 | 0.00 | 35 | 1004.1 |
| 20260504181557 | 63 | 187 | 0.0 | 10.0 | 0.00 | 0.00 | 0.00 | 37 | 1004.4 |
| 20260504180556 | 63 | 146 | 3.0 | 10.0 | 0.00 | 0.00 | 0.00 | 37 | 1004.4 |
| 20260504175554 | 63 | 152 | 2.0 | 8.0 | 0.00 | 0.00 | 0.00 | 37 | 1004.4 |
| 20260504174552 | 63 | 152 | 4.0 | 9.0 | 0.00 | 0.00 | 0.00 | 37 | 1004.7 |
| 20260504173519 | 62 | 149 | 4.0 | 9.0 | 0.00 | 0.00 | 0.00 | 38 | 1004.7 |
| 20260504172519 | 61 | 172 | 1.0 | 10.0 | 0.00 | 0.00 | 0.00 | 39 | 1004.7 |
| 20260504171516 | 61 | 154 | 3.0 | 10.0 | 0.00 | 0.00 | 0.00 | 38 | 1005.1 |
| 20260504170515 | 61 | 161 | 1.0 | 10.0 | 0.00 | 0.00 | 0.00 | 39 | 1005.1 |
| 20260504160438 | 58 | 138 | 2.0 | 12.0 | 0.00 | 0.00 | 0.00 | 39 | 1006.1 |
| 20260504150432 | 56 | 146 | 4.0 | 14.0 | 0.00 | 0.00 | 0.00 | 42 | 1006.8 |
| 20260504140425 | 52 | 133 | 3.0 | 9.0 | 0.00 | 0.00 | 0.00 | 51 | 1006.8 |
| 20260504130347 | 49 | 142 | 0.0 | 8.0 | 0.00 | 0.00 | 0.00 | 63 | 1006.1 |
| 20260504110303 | 49 | 142 | 5.0 | 13.0 | 0.00 | 0.00 | 0.00 | 74 | 1004.7 |
| 20260504100226 | 46 | 239 | 0.0 | 0.0 | 0.00 | 0.00 | 0.00 | 80 | 1003.7 |
| 20260504081143 | 49 | 239 | 0.0 | 0.0 | 0.00 | 0.00 | 0.00 | 77 | 1002.7 |
| 20260504080142 | 49 | 239 | 0.0 | 0.0 | 0.00 | 0.00 | 0.00 | 77 | 1002.7 |
| 20260504070136 | 50 | 239 | 0.0 | 0.0 | 0.00 | 0.00 | 0.00 | 73 | 1002.7 |
| 20260504060130 | 52 | 239 | 0.0 | 0.0 | 0.00 | 0.00 | 0.00 | 68 | 1002.4 |
| 20260504045052 | 56 | 239 | 0.0 | 0.0 | 0.00 | 0.00 | 0.00 | 62 | 1001.7 |
| 20260504044051 | 56 | 239 | 0.0 | 0.0 | 0.00 | 0.00 | 0.00 | 61 | 1001.7 |
| 20260504043050 | 57 | 239 | 0.0 | 0.0 | 0.00 | 0.00 | 0.00 | 60 | 1001.7 |
| 20260504042049 | 57 | 238 | 0.0 | 0.0 | 0.00 | 0.00 | 0.00 | 58 | 1001.4 |
| 20260504041048 | 58 | 238 | 0.0 | 0.0 | 0.00 | 0.00 | 0.00 | 57 | 1001.4 |
| 20260504040047 | 59 | 238 | 0.0 | 0.0 | 0.00 | 0.00 | 0.00 | 55 | 1001.4 |
| 20260504035015 | 60 | 238 | 0.0 | 0.0 | 0.00 | 0.00 | 0.00 | 53 | 1001.0 |
| 20260504034014 | 60 | 238 | 0.0 | 0.0 | 0.00 | 0.00 | 0.00 | 53 | 1001.0 |
| 20260504032942 | 61 | 238 | 0.0 | 0.0 | 0.00 | 0.00 | 0.00 | 52 | 1000.7 |
| 20260504031941 | 62 | 238 | 0.0 | 0.0 | 0.00 | 0.00 | 0.00 | 51 | 1000.7 |
| 20260504030940 | 63 | 238 | 0.0 | 0.0 | 0.00 | 0.00 | 0.00 | 49 | 1000.3 |
| 20260504025939 | 64 | 237 | 0.0 | 0.0 | 0.00 | 0.00 | 0.00 | 45 | 1000.3 |
| 20260504024938 | 66 | 237 | 0.0 | 0.0 | 0.00 | 0.00 | 0.00 | 44 | 1000.3 |
| 20260504023937 | 67 | 227 | 0.0 | 0.0 | 0.00 | 0.00 | 0.00 | 43 | 1000.0 |
| 20260504022936 | 68 | 227 | 0.0 | 0.0 | 0.00 | 0.00 | 0.00 | 40 | 1000.0 |
| 20260504021935 | 70 | 227 | 0.0 | 0.0 | 0.00 | 0.00 | 0.00 | 37 | 1000.0 |
| 20260504020934 | 71 | 227 | 0.0 | 1.0 | 0.00 | 0.00 | 0.00 | 37 | 1000.0 |
| 20260504015933 | 71 | 227 | 0.0 | 1.0 | 0.00 | 0.00 | 0.00 | 33 | 1000.0 |
| 20260504014932 | 73 | 227 | 0.0 | 0.0 | 0.00 | 0.00 | 0.00 | 33 | 1000.0 |
| 20260504013900 | 75 | 231 | 0.0 | 0.0 | 0.00 | 0.00 | 0.00 | 28 | 1000.0 |
| 20260504012827 | 76 | 230 | 0.0 | 1.0 | 0.00 | 0.00 | 0.00 | 25 | 1000.0 |
| 20260504011826 | 77 | 223 | 0.0 | 1.0 | 0.00 | 0.00 | 0.00 | 23 | 1000.0 |
| 20260504010825 | 78 | 333 | 0.0 | 2.0 | 0.00 | 0.00 | 0.00 | 20 | 1000.3 |
| 20260504005824 | 78 | 306 | 0.0 | 10.0 | 0.00 | 0.00 | 0.00 | 21 | 1000.3 |
| 20260504004822 | 78 | 314 | 2.0 | 10.0 | 0.00 | 0.00 | 0.00 | 19 | 1000.7 |
| 20260504003750 | 78 | 32 | 0.0 | 10.0 | 0.00 | 0.00 | 0.00 | 20 | 1000.7 |
| 20260504002748 | 78 | 304 | 0.0 | 2.0 | 0.00 | 0.00 | 0.00 | 20 | 1000.7 |
| 20260504001747 | 78 | 276 | 0.0 | 9.0 | 0.00 | 0.00 | 0.00 | 20 | 1000.7 |
| 20260504000715 | 78 | 310 | 0.0 | 9.0 | 0.00 | 0.00 | 0.00 | 19 | 1001.0 |
| 20260503235714 | 78 | 33 | 0.0 | 13.0 | 0.00 | 0.00 | 0.00 | 20 | 1001.0 |
| 20260503234713 | 77 | 318 | 1.0 | 13.0 | 0.00 | 0.00 | 0.00 | 21 | 1001.0 |
| 20260503233712 | 78 | 295 | 8.0 | 12.0 | 0.00 | 0.00 | 0.00 | 21 | 1001.0 |
| 20260503232710 | 78 | 347 | 1.0 | 8.0 | 0.00 | 0.00 | 0.00 | 21 | 1001.0 |
| 20260503231709 | 77 | 318 | 1.0 | 15.0 | 0.00 | 0.00 | 0.00 | 23 | 1001.4 |
| 20260503230709 | 77 | 31 | 0.0 | 15.0 | 0.00 | 0.00 | 0.00 | 23 | 1001.7 |
| 20260503225708 | 77 | 297 | 0.0 | 12.0 | 0.00 | 0.00 | 0.00 | 23 | 1001.7 |
| 20260503224707 | 77 | 252 | 0.0 | 12.0 | 0.00 | 0.00 | 0.00 | 25 | 1002.0 |
| 20260503223706 | 78 | 325 | 0.0 | 8.0 | 0.00 | 0.00 | 0.00 | 24 | 1002.0 |
| 20260503222705 | 77 | 2 | 0.0 | 14.0 | 0.00 | 0.00 | 0.00 | 24 | 1002.0 |
| 20260503221704 | 77 | 314 | 8.0 | 15.0 | 0.00 | 0.00 | 0.00 | 25 | 1002.4 |
| 20260503220703 | 77 | 315 | 1.0 | 15.0 | 0.00 | 0.00 | 0.00 | 24 | 1002.4 |